Aérodrome :
LOGIN :

S'inscrire | Disclaimer

   EN    FR    IT 

 










Légende :    VFR   VFR Marginal   IFR   IFR Intensif   IFR Très Intensif
Visi : 
Plafond : 
>= 8 km
>= 3000ft
5 à 8 km
1000 à 3000 ft
1500m à 5 km
500 à 1000 ft
800 à 1500m
200 à 500 ft
< 800m
< 200 ft
Symboles :   Orages  Brouillard  Fortes neiges  Fortes précipitations  Vent > 20 kt
SIGMETs :   Divers  Orages  Givrage  Turbulence  Onde Orograph.  Cendres Volcan.







- Altitude de l'aérodrome : 386 ft
- Code IATA : QOE


ETNN - Nörvenich Airforce Base

DERNIER METAR :
  • 270320Z 27008KT 6000 -DZ SCT008 BKN018 14/13 Q1009 WHT

METARs EXPIRÉS :
  • 270250Z 28009KT 9999 SCT008 BKN020 14/12 Q1009 WHT
  • 270220Z 27010KT 9999 SCT012 BKN025 14/12 Q1009 BLU
  • 270120Z 27010KT 9999 SCT015 BKN025 15/12 Q1009 BLU

TAF TAF ETNN
Valide du 27 à 02h jusqu'au 27 à 11h UTC


270110Z 2702/2711 24008KT 9999 NSW FEW030 BKN050
TEMPO 2702/2708 27010KT 5000 RA BKN010 BKN015 BY ETGL
Pas de NOTAMs connus pour ce terrain.



MET'MAP, la Météo Aéronautique d'un coup d'oeil ! - Copyright ORBIFLY Décembre 2007 - Disclaimer

ORBIFLY MET'MAP TEAM :

Programmation & Développement : Alexandra Zaïnal
Conception & Développement : Baudouin d'Aumeries
Co-Programmation & Développement : Marc-Olivier Méhu
Soutien technique & logistique : Manuel Goepfert

Contact : metmap@orbifly.com




SOURCES & CREDITS :

   NOAA